STARLINK-35281, 65824

Orbit data source: Space-Track

STARLINK-35281, 65824 is a payload satellite owned by SpaceX/Seattle (US) in LEO that was launched on Mon, 29 Sep 2025 UTC via an FALCON 9 launch vehicle from the Air Force Western Test Range (AFWTR). Payload-class satellites include a variety of spacecraft equipped with specific instruments for various scientific and technological missions. These include communications satellites like Starlink; space stations such as the ISS; scientific satellites like the Hubble; Earth observation satellites from companies like Planet Labs, Umbra, and HawkEye 360; GPS; miniature CubeSats for education and research; and military/defense satellites.

Loading next visibility...
Identifier
65824, 2025-221B
Orbit
LEO
Country
Flag of USUS
Related business
Manufacturer
SpaceX/Seattle
Mission
Operational spacecraft
Bus & Motor
STARLINK V2MO, Unknown motor
Mass
575 kg wet, ~530 kg dry
Launch date (UTC)
2025-09-29 (2 months ago)
Launch vehicle
FALCON 9
Launch site
Air Force Western Test Range (AFWTR)
Object type
Payload
Rocket body
Debris
Shape & HBR
Unknown shape, 17.7 m
Radar Cross Section
RCS unknown

Expand to show TLE details & history
Last TLE update: 16 hours ago

TLE from 16 hours ago
0 STARLINK-35281
1 65824U 25221B   25340.52191003  .00058986  00000-0  19846-2 0  9998
2 65824  53.1584 161.4832 0001117  73.3714 286.7409 15.30254528 11815
Epoch: 2025-12-06T12:31Z
TLE epoch observation values (Epoch: 2025-12-06T12:31:33.026Z)
Latitude
-0.00006°
Longitude
-101.9529°
Altitude
475.731 km
Speed
7.629 km/s
True Right ascension
10h 45m 55s
True Declination
0° 00' 00"
Sunlit
Object was in daylight at epoch
Visualization orbit readout
Latitude
Unknown
Longitude
Unknown
Altitude
Unknown
Speed
Unknown
Apparent Right ascension
Unknown
Apparent Declination
Unknown
Sunlit
N/A
Visualization observer readout
Local Sidereal Time
02:15:57
Azimuth
Unknown
Elevation
Unknown
Doppler factor
Unknown
Orbital elements
Apogee altitude
476.074 km
Perigee altitude
474.543 km
Semi-major axis
6,853.446 km
Eccentricity
0.00011
Inclination
53.1584°
RAAN
161.4832°
Arg. of periapsis
73.3714°
True anomaly
286.72864°
Mean anomaly
286.7409°
Eccentric anomaly
286.73477°
Mean motion
3.82542 °/min
Orbital period
94.11 mins
BSTAR
0.0019846
Loading maneuver chart data...
Computing Atmospheric mass density...
Loading historical data...
Loading historical data...
Loading historical data...
Loading historical data...
Loading historical data...
Loading historical data...
Loading historical data...

Documentation

Showing up to 5 results
|